H1 CPF 2 NER 2024 8 17 9 230 01 glonass127 H2 1106403 9127 37869 2024 8 17 0 0 0 2024 8 20 23 45 0 900 1 1 0 0 0 1 H9 10 0 60539 0.00000 0 3965152.795 11569730.351 -22335437.476 10 0 60539 900.00000 0 2344330.812 13738289.518 -21318203.394 10 0 60539 1800.00000 0 972024.065 15894313.239 -19885080.288 10 0 60539 2700.00000 0 -136858.942 17971507.846 -18064264.459 10 0 60539 3600.00000 0 -980152.933 19903731.825 -15891495.269 10 0 60539 4500.00000 0 -1568266.891 21627665.255 -13409333.316 10 0 60539 5400.00000 0 -1923477.669 23085372.218 -10666307.084 10 0 60539 6300.00000 0 -2078719.574 24226648.741 -7715946.440 10 0 60539 7200.00000 0 -2075924.458 25011058.475 -4615723.539 10 0 60539 8100.00000 0 -1963985.555 25409572.111 -1425923.107 10 0 60539 9000.00000 0 -1796433.579 25405743.730 1791534.864 10 0 60539 9900.00000 0 -1628925.069 24996377.125 4974296.469 10 0 60539 10800.00000 0 -1516649.967 24191656.701 8060775.882 10 0 60539 11700.00000 0 -1511767.977 23014739.965 10991335.128 10 0 60539 12600.00000 0 -1660981.179 21500830.771 13709419.717 10 0 60539 13500.00000 0 -2003343.937 19695773.649 16162629.710 10 0 60539 14400.00000 0 -2568400.702 17654228.679 18303707.414 10 0 60539 15300.00000 0 -3374728.356 15437502.985 20091424.827 10 0 60539 16200.00000 0 -4428942.874 13111128.215 21491356.023 10 0 60539 17100.00000 0 -5725211.110 10742283.033 22476521.830 10 0 60539 18000.00000 0 -7245287.980 8397165.376 23027896.312 10 0 60539 18900.00000 0 -8959078.247 6138420.868 23134766.797 10 0 60539 19800.00000 0 -10825701.098 4022731.237 22794941.395 10 0 60539 20700.00000 0 -12795015.496 2098660.200 22014800.139 10 0 60539 21600.00000 0 -14809545.743 404844.039 20809188.202 10 0 60539 22500.00000 0 -16806730.328 -1031399.498 19201151.888 10 0 60539 23400.00000 0 -18721403.603 -2194986.859 17221520.577 10 0 60539 24300.00000 0 -20488409.718 -3083470.683 14908340.259 10 0 60539 25200.00000 0 -22045242.030 -3706910.617 12306166.965 10 0 60539 26100.00000 0 -23334599.005 -4087216.984 9465231.078 10 0 60539 27000.00000 0 -24306750.036 -4256993.227 6440486.289 10 0 60539 27900.00000 0 -24921611.305 -4257924.110 3290559.598 10 0 60539 28800.00000 0 -25150442.870 -4138776.200 76621.429 10 0 60539 29700.00000 0 -24977093.220 -3953094.185 -3138802.857 10 0 60539 30600.00000 0 -24398735.984 -3756690.286 -6293056.775 10 0 60539 31500.00000 0 -23426064.725 -3605033.806 -9324587.133 10 0 60539 32400.00000 0 -22082934.686 -3550652.926 -12174163.455 10 0 60539 33300.00000 0 -20405464.188 -3640661.201 -14786056.697 10 0 60539 34200.00000 0 -18440631.861 -3914516.389 -17109151.927 10 0 60539 35100.00000 0 -16244427.902 -4402109.680 -19097970.946 10 0 60539 36000.00000 0 -13879637.150 -5122269.310 -20713582.730 10 0 60539 36900.00000 0 -11413347.908 -6081744.642 -21924381.975 10 0 60539 37800.00000 0 -8914292.452 -7274715.925 -22706719.137 10 0 60539 38700.00000 0 -6450132.327 -8682851.981 -23045368.729 10 0 60539 39600.00000 0 -4084803.864 -10275914.192 -22933826.298 10 0 60539 40500.00000 0 -1876036.339 -12012881.357 -22374428.467 10 0 60539 41400.00000 0 126852.590 -13843547.443 -21378294.264 10 0 60539 42300.00000 0 1884791.918 -15710523.819 -19965089.970 10 0 60539 43200.00000 0 3370346.869 -17551560.338 -18162623.406 10 0 60539 44100.00000 0 4568606.635 -19302086.166 -16006277.233 10 0 60539 45000.00000 0 5477535.636 -20897862.158 -13538294.065 10 0 60539 45900.00000 0 6107776.832 -22277632.338 -10806929.235 10 0 60539 46800.00000 0 6481919.004 -23385662.580 -7865489.454 10 0 60539 47700.00000 0 6633262.581 -24174059.971 -4771277.811 10 0 60539 48600.00000 0 6604139.582 -24604776.226 -1584467.066 10 0 60539 49500.00000 0 6443861.592 -24651212.472 1633075.825 10 0 60539 50400.00000 0 6206384.761 -24299359.916 4818990.390 10 0 60539 51300.00000 0 5947791.893 -23548430.774 7911625.138 10 0 60539 52200.00000 0 5723698.540 -22410955.297 10851218.927 10 0 60539 53100.00000 0 5586692.248 -20912342.881 13581039.296 10 0 60539 54000.00000 0 5583911.933 -19089927.286 16048457.181 10 0 60539 54900.00000 0 5754867.785 -16991536.767 18205939.179 10 0 60539 55800.00000 0 6129591.627 -14673648.950 20011940.339 10 0 60539 56700.00000 0 6727193.699 -12199206.574 21431682.590 10 0 60539 57600.00000 0 7554885.026 -9635183.383 22437806.039 10 0 60539 58500.00000 0 8607505.584 -7049999.062 23010882.538 10 0 60539 59400.00000 0 9867578.008 -4510887.723 23139783.142 10 0 60539 60300.00000 0 11305885.558 -2081326.102 22821893.298 10 0 60539 61200.00000 0 12882551.980 181374.795 22063171.779 10 0 60539 62100.00000 0 14548580.676 2228217.327 20878051.691 10 0 60539 63000.00000 0 16247792.003 4020317.003 19289184.150 10 0 60539 63900.00000 0 17919080.974 5530280.879 17327027.658 10 0 60539 64800.00000 0 19498904.136 6743107.679 15029288.743 10 0 60539 65700.00000 0 20923894.250 7656571.758 12440221.972 10 0 60539 66600.00000 0 22133495.102 8281073.828 9609800.266 10 0 60539 67500.00000 0 23072506.906 8638963.245 6592769.106 10 0 60539 68400.00000 0 23693435.244 8763358.643 3447600.932 10 0 60539 69300.00000 0 23958543.571 8696514.962 235368.666 10 0 60539 70200.00000 0 23841520.740 8487804.568 -2981440.418 10 0 60539 71100.00000 0 23328690.503 8191397.155 -6140147.341 10 0 60539 72000.00000 0 22419708.787 7863736.787 -9179115.882 10 0 60539 72900.00000 0 21127716.148 7560923.945 -12038973.323 10 0 60539 73800.00000 0 19478936.002 7336115.255 -14663791.744 10 0 60539 74700.00000 0 17511733.289 7237053.548 -17002204.518 10 0 60539 75600.00000 0 15275171.585 7303835.674 -19008433.902 10 0 60539 76500.00000 0 12827128.697 7567015.539 -20643207.494 10 0 60539 77400.00000 0 10232050.050 8046125.401 -21874543.691 10 0 60539 78300.00000 0 7558435.005 8748680.282 -22678389.384 10 0 60539 79200.00000 0 4876162.799 9669709.286 -23039096.449 10 0 60539 80100.00000 0 2253771.608 10791834.536 -22949727.295 10 0 60539 81000.00000 0 -244193.967 12085894.621 -22412183.640 10 0 60539 81900.00000 0 -2559655.092 13512085.698 -21437156.578 10 0 60539 82800.00000 0 -4643186.746 15021571.061 -20043899.951 10 0 60539 83700.00000 0 -6455830.571 16558489.815 -18259832.831 10 0 60539 84600.00000 0 -7970457.988 18062278.360 -16119980.436 10 0 60539 85500.00000 0 -9172628.621 19470205.263 -13666266.227 10 0 60540 0.00000 0 -10060910.941 20720011.252 -10946671.047 10 0 60540 900.00000 0 -10646655.533 21752542.917 -8014275.979 10 0 60540 1800.00000 0 -10953233.170 22514267.202 -4926212.966 10 0 60540 2700.00000 0 -11014775.063 22959563.400 -1742540.183 10 0 60540 3600.00000 0 -10874470.539 23052695.428 1474931.306 10 0 60540 4500.00000 0 -10582497.297 22769383.604 4663837.525 10 0 60540 5400.00000 0 -10193673.513 22097911.656 7762464.498 10 0 60540 6300.00000 0 -9764931.996 21039724.516 10710931.193 10 0 60540 7200.00000 0 -9352723.133 19609493.838 13452330.453 10 0 60540 8100.00000 0 -9010455.439 17834650.117 15933807.326 10 0 60540 9000.00000 0 -8786080.160 15754402.091 18107555.813 10 0 60540 9900.00000 0 -8719919.715 13418284.675 19931716.957 10 0 60540 10800.00000 0 -8842829.283 10884295.477 21371163.252 10 0 60540 11700.00000 0 -9174766.843 8216696.044 22398156.496 10 0 60540 12600.00000 0 -9723830.247 5483567.107 22992868.379 10 0 60540 13500.00000 0 -10485800.940 2754216.582 23143755.318 10 0 60540 14400.00000 0 -11444213.577 96544.700 22847781.246 10 0 60540 15300.00000 0 -12570949.654 -2425527.582 22110484.294 10 0 60540 16200.00000 0 -13827332.216 -4754463.246 20945885.542 10 0 60540 17100.00000 0 -15165678.425 -6841249.640 19376240.358 10 0 60540 18000.00000 0 -16531248.015 -8647187.513 17431635.208 10 0 60540 18900.00000 0 -17864509.106 -10145255.205 15149435.404 10 0 60540 19800.00000 0 -19103629.295 -11320991.259 12573591.773 10 0 60540 20700.00000 0 -20187089.729 -12172857.888 9753817.017 10 0 60540 21600.00000 0 -21056313.771 -12712068.818 6744645.263 10 0 60540 22500.00000 0 -21658200.111 -12961887.070 3604390.941 10 0 60540 23400.00000 0 -21947452.930 -12956420.495 394025.811 10 0 60540 24300.00000 0 -21888609.203 -12738964.282 -2824004.736 10 0 60540 25200.00000 0 -21457675.060 -12359959.391 -5987003.086 10 0 60540 26100.00000 0 -20643299.004 -11874652.879 -9033253.832 10 0 60540 27000.00000 0 -19447429.084 -11340559.568 -11903245.764 10 0 60540 27900.00000 0 -17885422.990 -10814833.799 -14540855.658 10 0 60540 28800.00000 0 -15985603.573 -10351664.554 -16894468.474 10 0 60540 29700.00000 0 -13788276.273 -9999806.698 -18918009.813 10 0 60540 30600.00000 0 -11344248.429 -9800355.577 -20571868.264 10 0 60540 31500.00000 0 -8712912.173 -9784861.778 -21823687.691 10 0 60540 32400.00000 0 -5959971.672 -9973868.135 -22649012.507 10 0 60540 33300.00000 0 -3154910.838 -10375932.557 -23031772.351 10 0 60540 34200.00000 0 -368308.904 -10987179.065 -22964596.229 10 0 60540 35100.00000 0 2330882.503 -11791396.266 -22448950.096 10 0 60540 36000.00000 0 4877985.730 -12760678.639 -21495095.745 10 0 60540 36900.00000 0 7215055.563 -13856582.485 -20121872.804 10 0 60540 37800.00000 0 9293046.971 -15031746.112 -18356309.471 10 0 60540 38700.00000 0 11073602.275 -16231904.060 -16233071.142 10 0 60540 39600.00000 0 12530384.547 -17398208.412 -13793759.511 10 0 60540 40500.00000 0 13649903.851 -18469757.505 -11086077.618 10 0 60540 41400.00000 0 14431804.816 -19386223.995 -8162878.939 10 0 60540 42300.00000 0 14888606.983 -20090470.527 -5081120.729 10 0 60540 43200.00000 0 15044912.636 -20531042.530 -1900743.443 10 0 60540 44100.00000 0 14936119.036 -20664433.450 1316500.890 10 0 60540 45000.00000 0 14606692.498 -20457028.069 4508247.842 10 0 60540 45900.00000 0 14108079.564 -19886643.594 7612723.864 10 0 60540 46800.00000 0 13496344.985 -18943605.549 10569930.713 10 0 60540 47700.00000 0 12829636.772 -17631315.124 13322788.940 10 0 60540 48600.00000 0 12165584.878 -15966285.876 15818219.772 10 0 60540 49500.00000 0 11558741.955 -13977649.382 18008146.329 10 0 60540 50400.00000 0 11058172.094 -11706151.117 19850396.985 10 0 60540 51300.00000 0 10705286.797 -9202678.125 21309495.755 10 0 60540 52200.00000 0 10532016.807 -6526378.673 22357326.705 10 0 60540 53100.00000 0 10559394.561 -3742450.178 22973661.582 10 0 60540 54000.00000 0 10796605.219 -919684.595 23146542.043 10 0 60540 54900.00000 0 11240545.377 1872129.967 22872510.094 10 0 60540 55800.00000 0 11875908.108 4564846.965 22156682.541 10 0 60540 56700.00000 0 12675791.911 7094532.291 21012667.537 10 0 60540 57600.00000 0 13602809.972 9403864.513 19462323.602 10 0 60540 58500.00000 0 14610655.787 11444266.987 17535363.913 10 0 60540 59400.00000 0 15646062.346 13177684.616 15268811.162 10 0 60540 60300.00000 0 16651075.505 14577931.801 12706310.870 10 0 60540 61200.00000 0 17565548.481 15631554.963 9897313.804 10 0 60540 62100.00000 0 18329754.345 16338172.514 6896140.845 10 0 60540 63000.00000 0 18887007.386 16710276.452 3760946.347 10 0 60540 63900.00000 0 19186182.653 16772502.049 552598.697 10 0 60540 64800.00000 0 19184026.142 16560394.626 -2666500.948 10 0 60540 65700.00000 0 18847155.874 16118723.965 -5833638.737 10 0 60540 66600.00000 0 18153666.424 15499416.694 -8887022.481 10 0 60540 67500.00000 0 17094265.718 14759193.956 -11767004.815 10 0 60540 68400.00000 0 15672892.597 13957014.966 -14417269.420 10 0 60540 69300.00000 0 13906785.806 13151436.128 -16785954.904 10 0 60540 70200.00000 0 11825998.731 12397999.473 -18826692.101 10 0 60540 71100.00000 0 9472378.267 11746763.350 -20499532.332 10 0 60540 72000.00000 0 6898049.588 11240082.283 -21771746.522 10 0 60540 72900.00000 0 4163470.105 10910732.148 -22618478.069 10 0 60540 73800.00000 0 1335134.606 10780461.685 -23023235.686 10 0 60540 74700.00000 0 -1516971.290 10859032.735 -22978216.110 10 0 60540 75600.00000 0 -4322061.577 11143790.074 -22484450.418 10 0 60540 76500.00000 0 -7011270.448 11619778.631 -21551771.682 10 0 60540 77400.00000 0 -9520288.283 12260402.007 -20198605.546 10 0 60540 78300.00000 0 -11791802.411 13028592.777 -18451589.173 10 0 60540 79200.00000 0 -13777640.869 13878443.087 -16345027.589 10 0 60540 80100.00000 0 -15440530.504 14757224.424 -13920199.802 10 0 60540 81000.00000 0 -16755397.700 15607709.078 -11224530.058 10 0 60540 81900.00000 0 -17710159.883 16370693.399 -8310642.193 10 0 60540 82800.00000 0 -18305977.749 16987614.847 -5235317.210 10 0 60540 83700.00000 0 -18556961.228 17403151.561 -2058375.808 10 0 60540 84600.00000 0 -18489345.109 17567694.606 1158491.269 10 0 60540 85500.00000 0 -18140172.428 17439589.134 4352921.620 10 0 60541 0.00000 0 -17555543.953 16987051.163 7463084.534 10 0 60541 900.00000 0 -16788509.226 16189680.499 10428867.994 10 0 60541 1800.00000 0 -15896690.033 15039508.533 13193023.007 10 0 60541 2700.00000 0 -14939735.493 13541537.791 15702250.108 10 0 60541 3600.00000 0 -13976715.868 11713752.431 17908204.696 10 0 60541 4500.00000 0 -13063562.863 9586599.824 19768405.582 10 0 60541 5400.00000 0 -12250661.874 7201964.905 21247031.259 10 0 60541 6300.00000 0 -11580694.818 4611679.200 22315590.803 10 0 60541 7200.00000 0 -11086821.634 1875624.906 22953458.445 10 0 60541 8100.00000 0 -10791274.604 -940489.622 23148263.138 10 0 60541 9000.00000 0 -10704422.927 -3767593.679 22896126.573 10 0 60541 9900.00000 0 -10824346.075 -6535858.403 22201745.359 10 0 60541 10800.00000 0 -11136934.061 -9177336.751 21078315.316 10 0 60541 11700.00000 0 -11616511.554 -11628532.860 19547298.165 10 0 60541 12600.00000 0 -12226961.570 -13832796.655 17638033.267 10 0 60541 13500.00000 0 -12923304.026 -15742446.034 15387199.612 10 0 60541 14400.00000 0 -13653665.465 -17320529.201 12838135.812 10 0 60541 15300.00000 0 -14361559.651 -18542153.656 10040028.608 10 0 60541 16200.00000 0 -14988385.056 -19395325.479 7046983.126 10 0 60541 17100.00000 0 -15476035.253 -19881262.284 3916990.774 10 0 60541 18000.00000 0 -15769512.411 -20014164.788 710813.385 10 0 60541 18900.00000 0 -15819432.776 -19820454.607 -2509195.523 10 0 60541 19800.00000 0 -15584316.541 -19337508.557 -5680309.477 10 0 60541 20700.00000 0 -15032562.676 -18611941.502 -8740663.247 10 0 60541 21600.00000 0 -14144022.013 -17697509.597 -11630477.114 10 0 60541 22500.00000 0 -12911098.553 -16652722.630 -14293245.444 10 0 60541 23400.00000 0 -11339328.972 -15538267.305 -16676864.129 10 0 60541 24300.00000 0 -9447412.701 -14414352.002 -18734672.614 10 0 60541 25200.00000 0 -7266688.724 -13338087.267 -20426387.932 10 0 60541 26100.00000 0 -4840079.329 -12361015.051 -21718910.545 10 0 60541 27000.00000 0 -2220544.275 -11526893.223 -22586984.719 10 0 60541 27900.00000 0 530889.940 -10869830.777 -23013699.496 10 0 60541 28800.00000 0 3347442.476 -10412853.678 -22990819.955 10 0 60541 29700.00000 0 6159134.440 -10166962.398 -22518942.329 10 0 60541 30600.00000 0 8895480.863 -10130720.612 -21607470.475 10 0 60541 31500.00000 0 11488204.644 -10290391.311 -20274415.091 10 0 60541 32400.00000 0 13873858.164 -10620612.827 -18546020.947 10 0 60541 33300.00000 0 15996242.734 -11085583.966 -16456230.958 10 0 60541 34200.00000 0 17808525.063 -11640705.639 -14045999.339 10 0 60541 35100.00000 0 19274963.462 -12234607.043 -11362469.083 10 0 60541 36000.00000 0 20372173.491 -12811468.425 -8458031.591 10 0 60541 36900.00000 0 21089882.699 -13313540.245 -5389288.502 10 0 60541 37800.00000 0 21431145.973 -13683750.952 -2215937.421 10 0 60541 38700.00000 0 21412015.929 -13868292.456 1000395.696 10 0 60541 39600.00000 0 21060685.553 -13819074.134 4197354.005 10 0 60541 40500.00000 0 20416142.258 -13495942.497 7313053.639 10 0 60541 41400.00000 0 19526392.375 -12868574.118 10287270.947 10 0 60541 42300.00000 0 18446332.430 -11917963.650 13062590.940 10 0 60541 43200.00000 0 17235357.397 -10637445.962 15585496.094 10 0 60541 44100.00000 0 15954806.119 -9033210.918 17807376.322 10 0 60541 45000.00000 0 14665350.026 -7124290.182 19685442.693 10 0 60541 45900.00000 0 13424432.739 -4942016.918 21183529.590 10 0 60541 46800.00000 0 12283865.486 -2528980.437 22272772.085 10 0 60541 47700.00000 0 11287676.428 62482.009 22932147.487 10 0 60541 48600.00000 0 10470301.444 2772195.684 23148872.246 10 0 60541 49500.00000 0 9855189.969 5534384.576 22918647.564 10 0 60541 50400.00000 0 9453882.859 8280143.755 22245749.322 10 0 60541 51300.00000 0 9265600.251 10940048.770 21142960.159 10 0 60541 52200.00000 0 9277357.025 13446797.098 19631343.847 10 0 60541 53100.00000 0 9464602.172 15737774.842 17739864.529 10 0 60541 54000.00000 0 9792357.088 17757444.179 15504855.856 10 0 60541 54900.00000 0 10216807.242 19459453.518 12969347.683 10 0 60541 55800.00000 0 10687282.640 20808382.768 10182260.691 10 0 60541 56700.00000 0 11148545.814 21781050.236 7197482.022 10 0 60541 57600.00000 0 11543292.425 22367325.150 4072837.762 10 0 60541 58500.00000 0 11814759.679 22570409.798 868980.687 10 0 60541 59400.00000 0 11909332.116 22406577.242 -2351785.915 10 0 60541 60300.00000 0 11779033.353 21904373.502 -5526725.534 10 0 60541 61200.00000 0 11383796.208 21103315.986 -8593902.432 10 0 60541 62100.00000 0 10693412.220 20052141.837 -11493406.945 10 0 60541 63000.00000 0 9689074.710 18806679.619 -14168546.349 10 0 60541 63900.00000 0 8364446.546 17427434.541 -16566975.853 10 0 60541 64800.00000 0 6726204.125 15976990.216 -18641745.333 10 0 60541 65700.00000 0 4794031.582 14517338.335 -20352239.168 10 0 60541 66600.00000 0 2600063.222 13107250.948 -21664988.806 10 0 60541 67500.00000 0 187796.095 11799808.330 -22554340.661 10 0 60541 68400.00000 0 -2389482.268 10640188.508 -23002965.197 10 0 60541 69300.00000 0 -5070684.837 9663813.070 -23002196.722 10 0 60541 70200.00000 0 -7789250.663 8894928.047 -22552197.248 10 0 60541 71100.00000 0 -10475706.545 8345679.593 -21661941.718 10 0 60541 72000.00000 0 -13060356.351 8015722.433 -20349025.847 10 0 60541 72900.00000 0 -15475984.409 7892375.882 -18639301.600 10 0 60541 73800.00000 0 -17660459.191 7951318.468 -16566349.030 10 0 60541 74700.00000 0 -19559128.225 8157789.088 -14170796.507 10 0 60541 75600.00000 0 -21126904.608 8468241.024 -11499504.467 10 0 60541 76500.00000 0 -22329959.123 8832376.078 -8604630.368 10 0 60541 77400.00000 0 -23146949.112 9195470.353 -5542594.830 10 0 60541 78300.00000 0 -23569735.284 9500891.339 -2372970.539 10 0 60541 79200.00000 0 -23603559.472 9692698.633 842683.307 10 0 60541 80100.00000 0 -23266679.110 9718217.774 4042017.576 10 0 60541 81000.00000 0 -22589476.906 9530478.699 7163097.317 10 0 60541 81900.00000 0 -21613085.737 9090416.704 10145590.357 10 0 60541 82800.00000 0 -20387588.585 8368744.447 12931918.153 10 0 60541 83700.00000 0 -18969870.166 7347417.701 15468347.982 10 0 60541 84600.00000 0 -17421210.614 6020634.761 17706007.192 10 0 60541 85500.00000 0 -15804721.314 4395328.795 19601802.003 10 0 60542 0.00000 0 -14182728.818 2491133.321 21119225.338 10 0 60542 900.00000 0 -12614213.180 339821.119 22229041.103 10 0 60542 1800.00000 0 -11152407.314 -2015758.369 22909831.806 10 0 60542 2700.00000 0 -9842652.085 -4523204.031 23148403.318 10 0 60542 3600.00000 0 -8720596.311 -7122487.146 22940037.899 10 0 60542 4500.00000 0 -7810814.045 -9748198.595 22288591.824 10 0 60542 5400.00000 0 -7125895.684 -12332029.170 21206435.231 10 0 60542 6300.00000 0 -6666050.480 -14805383.392 19714234.167 10 0 60542 7200.00000 0 -6419237.476 -17102021.359 17840577.315 10 0 60542 8100.00000 0 -6361820.579 -19160621.288 15621452.284 10 0 60542 9000.00000 0 -6459722.027 -20927157.798 13099579.018 10 0 60542 9900.00000 0 -6670027.855 -22356997.493 10323610.556 10 0 60542 10800.00000 0 -6942979.846 -23416624.113 7347214.115 10 0 60542 11700.00000 0 -7224271.719 -24084919.937 4228048.156 10 0 60542 12600.00000 0 -7457553.693 -24353947.848 1026653.805 10 0 60542 13500.00000 0 -7587039.852 -24229198.933 -2194718.739 10 0 60542 14400.00000 0 -7560107.277 -23729292.743 -5373326.041 10 0 60542 15300.00000 0 -7329775.275 -22885140.574 -8447165.173 10 0 60542 16200.00000 0 -6856957.235 -21738605.214 -11356200.003 10 0 60542 17100.00000 0 -6112386.647 -20340712.553 -14043554.297 10 0 60542 18000.00000 0 -5078132.325 -18749490.157 -16456646.147 10 0 60542 18900.00000 0 -3748635.265 -17027524.473 -18548239.309 10 0 60542 19800.00000 0 -2131220.135 -15239340.810 -20277388.695 10 0 60542 20700.00000 0 -246057.121 -13448718.254 -21610259.558 10 0 60542 21600.00000 0 1874426.211 -11716054.539 -22520802.809 10 0 60542 22500.00000 0 4186659.440 -10095893.659 -22991272.149 10 0 60542 23400.00000 0 6637523.727 -8634721.836 -23012572.378 10 0 60542 24300.00000 0 9166358.840 -7369125.472 -22584432.000 10 0 60542 25200.00000 0 11707297.754 -6324388.723 -21715397.268 10 0 60542 26100.00000 0 14191829.759 -5513589.003 -20422648.649 10 0 60542 27000.00000 0 16551483.496 -4937226.939 -18731644.608 10 0 60542 27900.00000 0 18720516.529 -4583404.027 -16675601.195 10 0 60542 28800.00000 0 20638498.225 -4428537.669 -14294819.354 10 0 60542 29700.00000 0 22252677.747 -4438580.211 -11635874.933 10 0 60542 30600.00000 0 23520038.686 -4570687.275 -8750688.976 10 0 60542 31500.00000 0 24408955.637 -4775261.901 -5695498.192 10 0 60542 32400.00000 0 24900385.384 -4998285.499 -2529747.125 10 0 60542 33300.00000 0 24988545.347 -5183835.164 685075.263 10 0 60542 34200.00000 0 24681053.766 -5276679.756 3886631.150 10 0 60542 35100.00000 0 23998528.707 -5224844.703 7012938.098 10 0 60542 36000.00000 0 22973665.459 -4982037.559 10003558.890 10 0 60542 36900.00000 0 21649833.222 -4509833.032 12800754.685 10 0 60542 37800.00000 0 20079251.435 -3779526.769 15350580.519 10 0 60542 38700.00000 0 18320822.707 -2773581.487 17603903.790 10 0 60542 39600.00000 0 16437712.722 -1486606.100 19517328.120 10 0 60542 40500.00000 0 14494777.070 74172.210 21054007.082 10 0 60542 41400.00000 0 12555940.439 1888962.371 22184334.357 10 0 60542 42300.00000 0 10681635.010 3925988.418 22886499.054 10 0 60542 43200.00000 0 8926402.044 6142570.259 23146897.170 10 0 60542 44100.00000 0 7336753.814 8486663.339 22960392.294 10 0 60542 45000.00000 0 5949382.581 10898795.916 22330420.962 10 0 60542 45900.00000 0 4789789.353 13314326.671 21268940.247 10 0 60542 46800.00000 0 3871388.525 15665932.235 19796217.518 10 0 60542 47700.00000 0 3195125.500 17886224.430 17940464.661 10 0 60542 48600.00000 0 2749623.830 19910391.136 15737321.580 10 0 60542 49500.00000 0 2511856.910 21678752.860 13229196.356 10 0 60542 50400.00000 0 2448317.754 23139129.475 10464472.179 10 0 60542 51300.00000 0 2516639.557 24248918.415 7496593.909 10 0 60542 52200.00000 0 2667600.526 24976796.514 4383049.782 10 0 60542 53100.00000 0 2847429.739 25303972.403 1184266.521 10 0 60542 54000.00000 0 3000317.232 25224934.617 -2037561.588 10 0 60542 54900.00000 0 3071021.931 24747661.266 -5219687.023 10 0 60542 55800.00000 0 3007465.874 23893279.843 -8300042.439 10 0 60542 56700.00000 0 2763202.848 22695189.117 -11218467.879 10 0 60542 57600.00000 0 2299654.110 21197678.406 -13917906.045 10 0 60542 58500.00000 0 1588013.354 19454101.391 -16345540.140 10 0 60542 59400.00000 0 610736.842 17524681.271 -18453849.784 10 0 60542 60300.00000 0 -637447.574 15474040.302 -20201562.173 10 0 60542 61200.00000 0 -2149058.077 13368558.999 -21554477.891 10 0 60542 62100.00000 0 -3903925.791 11273677.756 -22486153.625 10 0 60542 63000.00000 0 -5869809.708 9251256.113 -22978427.361 10 0 60542 63900.00000 0 -8003534.435 7357102.247 -23021775.142 10 0 60542 64800.00000 0 -10252602.937 5638777.623 -22615492.404 10 0 60542 65700.00000 0 -12557215.835 4133769.425 -21767696.771 10 0 60542 66600.00000 0 -14852611.405 2868107.195 -20495153.133 10 0 60542 67500.00000 0 -17071626.787 1855480.533 -18822925.732 10 0 60542 68400.00000 0 -19147371.746 1096892.832 -16783865.529 10 0 60542 69300.00000 0 -21015901.825 580862.881 -14417944.656 10 0 60542 70200.00000 0 -22618778.322 284162.509 -11771452.744 10 0 60542 71100.00000 0 -23905407.820 173055.720 -8896072.630 10 0 60542 72000.00000 0 -24835063.918 204983.575 -5847855.198 10 0 60542 72900.00000 0 -25378507.851 330620.565 -2686114.829 10 0 60542 73800.00000 0 -25519142.081 496213.075 527731.857 10 0 60542 74700.00000 0 -25253650.937 646099.307 3731360.572 10 0 60542 75600.00000 0 -24592104.172 725303.213 6862743.739 10 0 60542 76500.00000 0 -23557521.705 682092.769 9861341.564 10 0 60542 77400.00000 0 -22184920.106 470395.204 12669257.478 10 0 60542 78300.00000 0 -20519882.488 51968.585 15232336.909 10 0 60542 79200.00000 0 -18616712.543 -601760.184 17501189.923 10 0 60542 80100.00000 0 -16536249.949 -1508266.612 19432120.079 10 0 60542 81000.00000 0 -14343437.454 -2672967.763 20987943.833 10 0 60542 81900.00000 0 -12104739.372 -4088768.714 22138687.021 10 0 60542 82800.00000 0 -9885516.670 -5736135.175 22862147.014 10 0 60542 83700.00000 0 -7747465.096 -7583689.964 23144311.389 10 0 60542 84600.00000 0 -5746219.974 -9589310.072 22979626.183 10 0 60542 85500.00000 0 -3929224.551 -11701680.933 22371108.937 99